Tracking 33198 objects as of 13-Feb-2026
HD Live streaming from Space Station
objects crossing your sky now

SONATE-2

Track SONATE-2 now!
10-day predictions
SONATE-2 is classified as:


NORAD ID: 59112
Int'l Code: 2024-043Q
Perigee: 420.2 km
Apogee: 431.0 km
Inclination: 97.5 °
Period: 92.9 minutes
Semi major axis: 6796 km
RCS: Unknown
Launch date: March 4, 2024
Source: Germany (GER)
Launch site: AIR FORCE WESTERN TEST RANGE (AFWTR)

Uplink (MHz): 145.825
Downlink (MHz): 145.880/437.025*
Beacon (MHz): 145.840
Mode: 1k2AFSK/9k6*GMSK APRS SSTV CW
Call sign:
Status: Active

Your satellite tracking list
Your tracking list is empty




NASA's NSSDC Master Catalog

Two Line Element Set (TLE):
1 59112U 24043Q   26043.93844685  .00032467  00000-0  59101-3 0  9994
2 59112  97.5361 187.7212 0008016 301.1600  58.8864 15.49406655108592
Source of the keplerian elements: AMSAT